Location: Holyhead Bay
(53.3667°N, 4.6667°W)
Time: 18:56:48
(UTC+00:00)

Cosmos 44 - Pass Details

Date: 24 November 2020
Orbit: 574 x 787 km, 65.1° (Epoch: 16 January)

Event Time Altitude Azimuth Distance (km) Brightness Sun altitude
Rises 18:21:09 0° 315° (NW) 3,162 7.2 -18.8°
Reaches altitude 10° 18:23:29 10° 315° (NW) 2,265 6.4 -19.1°
Maximum altitude 18:28:43 84° 228° (SW) 779 3.5 -19.9°
Enters shadow 18:32:39 19° 142° (SE) 1,789 5.1 -20.5°
